Poteau, OK

2:27 AM CDT on May 24, 2017 (GMT -0500)
Kerr

Weather History for KRKR - January, 2013

Change the Weather History Date:

Saturday, January 5, 2013

  Actual Average (KFSM) Record (KFSM)
Temperature  
Mean Temperature 42 °F -  
Max Temperature 51 °F 48 °F 73 °F (1916)
Min Temperature 32 °F 29 °F -5 °F (1884)
Degree Days  
Heating Degree Days 24    
Moisture  
Dew Point 34 °F    
Average Humidity 82    
Maximum Humidity 100    
Minimum Humidity 58    
Precipitation  
Precipitation 0.00 in - - ()
Sea Level Pressure  
Sea Level Pressure 30.30 in    
Wind  
Wind Speed 2 mph (SSW)    
Max Wind Speed 13 mph    
Max Gust Speed 18 mph    
Visibility 10 miles    
Events      
Averages and records for this station are not official NWS values.
T = Trace of Precipitation, MM = Missing Value Source: NWS Daily Summary

Daily Weather History Graph

Daily Weather History Graph

Search for Another Location

Airport or City:

Trip Planner

Search our weather history database for the weather conditions in past years. The results will help you decide how hot, cold, wet, or windy it might be!

Date:

Astronomy

Jan. 05, 2013 Rise Set
Actual Time 7:27 AM CST 5:21 PM CST
Civil Twilight 6:59 AM CST 5:49 PM CST
Nautical Twilight 6:27 AM CST 6:20 PM CST
Astronomical Twilight 5:56 AM CST 6:51 PM CST
Moon 12:42 AM CST (1/5) 12:04 PM CST (1/5)
Length of Visible Light 10h 50m
Length of Day
9h 54m
Last Quarter, 44% of the Moon is Illuminated
Jan 5
Last Quarter
Jan 11
New
Jan 18
First Quarter
Jan 26
Full
Feb 3
Last Quarter

Hourly Weather History & Observations

Time (CST) Temp. Windchill Dew Point Humidity Pressure Visibility Wind Dir Wind Speed Gust Speed Precip Events Conditions
12:15 AM 32.0 °F - 30.2 °F 93% 30.36 in 10.0 mi Calm Calm - N/A   Scattered Clouds
12:35 AM 32.0 °F - 30.2 °F 93% 30.36 in 10.0 mi Calm Calm - N/A   Mostly Cloudy
1:15 AM 32.0 °F - 30.2 °F 93% 30.35 in 10.0 mi Calm Calm - N/A   Overcast
1:35 AM 32.0 °F - 30.2 °F 93% 30.35 in 10.0 mi Calm Calm - N/A   Overcast
1:55 AM 32.0 °F - 32.0 °F 100% 30.36 in 10.0 mi Calm Calm - N/A   Overcast
2:15 AM 33.8 °F - 32.0 °F 93% 30.36 in 10.0 mi Calm Calm - N/A   Overcast
2:35 AM 33.8 °F - 32.0 °F 93% 30.37 in 10.0 mi Calm Calm - N/A   Overcast
2:55 AM 33.8 °F - 32.0 °F 93% 30.37 in 10.0 mi Calm Calm - N/A   Overcast
3:15 AM 35.6 °F - 32.0 °F 87% 30.36 in 10.0 mi Calm Calm - N/A   Overcast
3:35 AM 33.8 °F - 32.0 °F 93% 30.36 in 10.0 mi Calm Calm - N/A   Overcast
3:55 AM 33.8 °F - 32.0 °F 93% 30.36 in 10.0 mi Calm Calm - N/A   Overcast
4:15 AM 33.8 °F - 32.0 °F 93% 30.36 in 10.0 mi Calm Calm - N/A   Overcast
4:35 AM 33.8 °F - 32.0 °F 93% 30.36 in 10.0 mi Calm Calm - N/A   Overcast
4:55 AM 33.8 °F - 32.0 °F 93% 30.35 in 10.0 mi Calm Calm - N/A   Overcast
5:15 AM 35.6 °F - 32.0 °F 87% 30.34 in 10.0 mi Calm Calm - N/A   Overcast
5:35 AM 35.6 °F - 33.8 °F 93% 30.34 in 10.0 mi Calm Calm - N/A   Overcast
5:55 AM 35.6 °F - 33.8 °F 93% 30.34 in 10.0 mi Calm Calm - N/A   Overcast
6:15 AM 35.6 °F - 33.8 °F 93% 30.34 in 10.0 mi Calm Calm - N/A   Overcast
6:35 AM 35.6 °F - 33.8 °F 93% 30.34 in 10.0 mi Calm Calm - N/A   Overcast
6:55 AM 35.6 °F - 33.8 °F 93% 30.35 in 10.0 mi Calm Calm - N/A   Overcast
7:15 AM 35.6 °F - 32.0 °F 87% 30.35 in 10.0 mi Calm Calm - N/A   Overcast
7:35 AM 35.6 °F - 33.8 °F 93% 30.36 in 10.0 mi Calm Calm - N/A   Overcast
7:55 AM 35.6 °F - 32.0 °F 87% 30.36 in 10.0 mi Calm Calm - N/A   Overcast
8:15 AM 35.6 °F - 33.8 °F 93% 30.35 in 10.0 mi Calm Calm - N/A   Overcast
8:35 AM 37.4 °F - 33.8 °F 87% 30.35 in 10.0 mi Calm Calm - N/A   Overcast
8:55 AM 37.4 °F - 35.6 °F 93% 30.34 in 10.0 mi Calm Calm - N/A   Overcast
9:15 AM 37.4 °F - 33.8 °F 87% 30.34 in 10.0 mi Calm Calm - N/A   Overcast
9:55 AM 44.6 °F 43.1 °F 33.8 °F 66% 30.34 in 10.0 mi South 3.5 mph - N/A   Overcast
10:15 AM 44.6 °F 39.7 °F 33.8 °F 66% 30.34 in 10.0 mi South 9.2 mph - N/A   Overcast
10:55 AM 44.6 °F 39.2 °F 35.6 °F 71% 30.31 in 10.0 mi SSW 10.4 mph - N/A   Overcast
11:15 AM 44.6 °F 39.7 °F 35.6 °F 71% 30.31 in 10.0 mi SSW 9.2 mph - N/A   Overcast
11:35 AM 44.6 °F 41.4 °F 35.6 °F 71% 30.30 in 10.0 mi South 5.8 mph - N/A   Overcast
11:55 AM 46.4 °F 42.4 °F 35.6 °F 66% 30.28 in 10.0 mi South 8.1 mph - N/A   Overcast
12:15 PM 48.2 °F - 35.6 °F 62% 30.27 in 10.0 mi WSW 5.8 mph - N/A   Overcast
12:35 PM 48.2 °F - 37.4 °F 66% 30.26 in 10.0 mi SSW 6.9 mph - N/A   Overcast
12:55 PM 48.2 °F - 37.4 °F 66% 30.26 in 10.0 mi SW 8.1 mph - N/A   Mostly Cloudy
1:15 PM 48.2 °F - 35.6 °F 62% 30.24 in 10.0 mi SW 6.9 mph - N/A   Overcast
1:35 PM 50.0 °F - 37.4 °F 62% 30.23 in 10.0 mi SSW 10.4 mph - N/A   Overcast
1:55 PM 50.0 °F - 37.4 °F 62% 30.24 in 10.0 mi WSW 8.1 mph - N/A   Overcast
2:15 PM 51.8 °F - 37.4 °F 58% 30.23 in 10.0 mi WSW 8.1 mph - N/A   Overcast
2:35 PM 51.8 °F - 37.4 °F 58% 30.23 in 10.0 mi WSW 12.7 mph 18.4 mph N/A   Overcast
2:55 PM 51.8 °F - 37.4 °F 58% 30.23 in 10.0 mi SW 10.4 mph - N/A   Mostly Cloudy
3:15 PM 50.0 °F - 37.4 °F 62% 30.23 in 10.0 mi SSW 9.2 mph - N/A   Mostly Cloudy
3:35 PM 51.8 °F - 37.4 °F 58% 30.23 in 10.0 mi South 5.8 mph - N/A   Scattered Clouds
3:55 PM 50.0 °F - 37.4 °F 62% 30.23 in 10.0 mi SW 8.1 mph 16.1 mph N/A   Mostly Cloudy
4:15 PM 51.8 °F - 37.4 °F 58% 30.23 in 10.0 mi South 8.1 mph - N/A   Mostly Cloudy
4:35 PM 50.0 °F - 37.4 °F 62% 30.23 in 10.0 mi South 5.8 mph - N/A   Overcast
4:55 PM 48.2 °F - 37.4 °F 66% 30.23 in 10.0 mi SSW 4.6 mph - N/A   Mostly Cloudy
5:15 PM 44.6 °F - 35.6 °F 71% 30.24 in 10.0 mi Calm Calm - N/A   Mostly Cloudy
5:35 PM 44.6 °F - 35.6 °F 71% 30.24 in 10.0 mi Calm Calm - N/A   Mostly Cloudy
5:55 PM 44.6 °F - 35.6 °F 71% 30.23 in 10.0 mi Calm Calm - N/A   Mostly Cloudy
6:15 PM 41.0 °F - 35.6 °F 81% 30.23 in 10.0 mi Calm Calm - N/A   Scattered Clouds
6:35 PM 41.0 °F - 35.6 °F 81% 30.24 in 10.0 mi Calm Calm - N/A   Scattered Clouds
6:55 PM 37.4 °F - 33.8 °F 87% 30.26 in 10.0 mi Calm Calm - N/A   Mostly Cloudy
7:15 PM 41.0 °F - 35.6 °F 81% 30.27 in 10.0 mi Calm Calm - N/A   Overcast
7:55 PM 41.0 °F - 35.6 °F 81% 30.27 in 10.0 mi Calm Calm - N/A   Overcast
8:15 PM 41.0 °F - 37.4 °F 87% 30.28 in 10.0 mi Calm Calm - N/A   Scattered Clouds
8:35 PM 35.6 °F - 33.8 °F 93% 30.28 in 10.0 mi Calm Calm - N/A   Scattered Clouds
8:55 PM 35.6 °F - 33.8 °F 93% 30.28 in 10.0 mi Calm Calm - N/A   Scattered Clouds
9:15 PM 35.6 °F - 35.6 °F 100% 30.28 in 10.0 mi Calm Calm - N/A   Clear
9:35 PM 35.6 °F - 35.6 °F 100% 30.28 in 10.0 mi Calm Calm - N/A   Clear
9:55 PM 35.6 °F 32.8 °F 35.6 °F 100% 30.28 in 10.0 mi SSW 3.5 mph - N/A   Clear
10:15 PM 37.4 °F - 35.6 °F 93% 30.29 in 10.0 mi Calm Calm - N/A   Clear
10:35 PM 35.6 °F 32.8 °F 33.8 °F 93% 30.28 in 10.0 mi South 3.5 mph - N/A   Clear
10:55 PM 33.8 °F - 32.0 °F 93% 30.28 in 10.0 mi Calm Calm - N/A   Clear
11:15 PM 35.6 °F - 35.6 °F 100% 30.29 in 10.0 mi Calm Calm - N/A   Clear
11:35 PM 35.6 °F 31.7 °F 35.6 °F 100% 30.29 in 10.0 mi WSW 4.6 mph - N/A   Clear
11:55 PM 32.0 °F - 32.0 °F 100% 30.29 in 7.0 mi Calm Calm - N/A   Clear